TimeCST,TemperatureF,Dew PointF,Humidity,Sea Level PressureIn,VisibilityMPH,Wind Direction,Wind SpeedMPH,Gust SpeedMPH,PrecipitationIn,Events,Conditions,WindDirDegrees,DateUTC
12:53 AM,50.0,43.0,77,30.24,10.0,Calm,Calm,-,N/A,,Partly Cloudy,0,2012-11-11 06:53:00
1:53 AM,52.0,44.1,74,30.22,10.0,Calm,Calm,-,N/A,,Partly Cloudy,0,2012-11-11 07:53:00
2:53 AM,48.0,44.1,86,30.23,10.0,Calm,Calm,-,N/A,,Clear,0,2012-11-11 08:53:00
3:53 AM,46.9,44.1,90,30.25,10.0,Calm,Calm,-,N/A,,Clear,0,2012-11-11 09:53:00
4:53 AM,48.0,44.1,86,30.25,10.0,Calm,Calm,-,N/A,,Clear,0,2012-11-11 10:53:00
5:53 AM,46.9,44.1,90,30.27,10.0,Calm,Calm,-,N/A,,Clear,0,2012-11-11 11:53:00
6:53 AM,51.1,46.0,83,30.29,10.0,Calm,Calm,-,N/A,,Clear,0,2012-11-11 12:53:00
7:53 AM,55.9,44.1,64,30.30,10.0,ESE,5.8,-,N/A,,Partly Cloudy,110,2012-11-11 13:53:00
9:53 AM,64.0,45.0,50,30.29,10.0,SSE,13.8,20.7,N/A,,Clear,150,2012-11-11 15:53:00
12:53 PM,73.9,53.1,48,30.21,10.0,SSE,11.5,21.9,N/A,,Clear,150,2012-11-11 18:53:00
1:53 PM,73.9,53.1,48,30.19,10.0,South,12.7,24.2,N/A,,Mostly Cloudy,170,2012-11-11 19:53:00
2:53 PM,75.0,53.1,46,30.17,10.0,SE,9.2,-,N/A,,Mostly Cloudy,130,2012-11-11 20:53:00
3:53 PM,73.9,54.0,50,30.17,10.0,SSE,8.1,-,N/A,,Scattered Clouds,150,2012-11-11 21:53:00
4:53 PM,72.0,53.1,51,30.19,10.0,SE,8.1,-,N/A,,Scattered Clouds,140,2012-11-11 22:53:00
5:53 PM,71.1,53.1,53,30.18,10.0,SE,8.1,19.6,N/A,,Partly Cloudy,130,2012-11-11 23:53:00
6:53 PM,69.1,53.1,57,30.18,10.0,SE,8.1,-,N/A,,Clear,140,2012-11-12 00:53:00
7:53 PM,68.0,52.0,56,30.17,10.0,SE,9.2,18.4,N/A,,Clear,140,2012-11-12 01:53:00
8:53 PM,66.9,52.0,59,30.18,10.0,SE,10.4,-,N/A,,Clear,140,2012-11-12 02:53:00
9:53 PM,66.9,52.0,59,30.18,10.0,South,11.5,16.1,N/A,,Clear,170,2012-11-12 03:53:00
10:53 PM,64.9,51.1,61,30.17,10.0,South,9.2,-,N/A,,Clear,180,2012-11-12 04:53:00
11:53 PM,66.9,51.1,57,30.14,10.0,South,11.5,-,N/A,,Partly Cloudy,170,2012-11-12 05:53:00